Photometre #645[NE_1.6] Timisoara AOT

File : 20190928_645.hum

28/09/2019,05:19:43,TEMP=12.0,BA=5.32,STAT.A=2.0,ExtBa=12.98
28/09/2019,05:23:26,TEMP=12.2,BA=5.24,STAT.A=2.0,ExtBa=12.87
28/09/2019,05:27:48,TEMP=12.3,BA=5.24,STAT.A=2.0,ExtBa=12.83
28/09/2019,05:32:59,TEMP=12.4,BA=5.44,STAT.A=2.0,ExtBa=12.87
28/09/2019,05:39:15,TEMP=12.6,BA=5.44,STAT.A=2.0,ExtBa=12.89
28/09/2019,05:46:59,TEMP=12.8,BA=5.32,STAT.A=2.0,ExtBa=12.90
28/09/2019,05:56:47,TEMP=13.3,BA=5.60,STAT.B=2.0,ExtBa=13.01
28/09/2019,06:05:50,TEMP=14.0,BA=5.32,STAT.A=2.0,ExtBa=12.82
28/09/2019,06:07:43,TEMP=14.2,BA=5.32,STAT.A=2.0,ExtBa=12.88
28/09/2019,06:12:44,TEMP=14.4,BA=5.60,STAT.A=2.0,ExtBa=13.12
28/09/2019,06:19:32,TEMP=14.8,BA=5.60,STAT.A=2.0,ExtBa=13.26
28/09/2019,06:27:24,TEMP=15.4,BA=5.40,STAT.C=2.0,ExtBa=13.35
28/09/2019,06:42:23,TEMP=16.4,BA=5.36,STAT.A=2.0,ExtBa=12.74
28/09/2019,06:47:31,TEMP=16.4,BA=5.36,STAT.A=2.0,ExtBa=13.13
28/09/2019,07:00:45,TEMP=17.2,BA=5.64,STAT.A=2.0,ExtBa=13.67
28/09/2019,07:17:11,TEMP=17.9,BA=5.64,STAT.A=3.0,ExtBa=13.92
28/09/2019,07:25:24,TEMP=18.5,BA=5.64,STAT.F,ExtBa=13.68
28/09/2019,07:40:24,TEMP=19.6,BA=5.44,STAT.D=3.0,ExtBa=13.06
28/09/2019,07:55:24,TEMP=19.4,BA=5.60,STAT.D=3.0,ExtBa=13.78
28/09/2019,08:10:24,TEMP=19.9,BA=5.60,STAT.D=3.0,ExtBa=13.77
28/09/2019,08:25:25,TEMP=20.4,BA=5.60,STAT.F,ExtBa=13.89
28/09/2019,08:42:48,TEMP=21.1,BA=5.36,STAT.D=3.0,ExtBa=13.61
28/09/2019,08:55:24,TEMP=22.2,BA=5.56,STAT.D=3.0,ExtBa=14.12
28/09/2019,09:10:24,TEMP=23.4,BA=5.60,STAT.D=3.0,ExtBa=14.36
28/09/2019,09:25:26,TEMP=24.3,BA=5.56,STAT.F,ExtBa=14.47
28/09/2019,09:40:24,TEMP=25.0,BA=5.52,STAT.D=3.5,ExtBa=13.82
28/09/2019,09:55:24,TEMP=25.3,BA=5.52,STAT.D=3.5,ExtBa=14.44
28/09/2019,10:10:24,TEMP=25.6,BA=5.52,STAT.D=3.5,ExtBa=14.28
28/09/2019,10:25:25,TEMP=25.7,BA=5.52,STAT.F,ExtBa=14.76
28/09/2019,10:40:24,TEMP=26.6,BA=5.48,STAT.D=3.5,ExtBa=13.49
28/09/2019,10:55:24,TEMP=26.0,BA=5.48,STAT.D=3.5,ExtBa=14.27
28/09/2019,11:10:24,TEMP=25.7,BA=5.48,STAT.D=3.5,ExtBa=14.28
28/09/2019,11:25:25,TEMP=25.9,BA=5.48,STAT.F,ExtBa=14.17
28/09/2019,11:40:24,TEMP=26.1,BA=5.44,STAT.D=3.5,ExtBa=13.16
28/09/2019,11:55:24,TEMP=26.0,BA=5.48,STAT.D=3.5,ExtBa=13.55
28/09/2019,12:10:24,TEMP=25.9,BA=5.48,STAT.D=3.5,ExtBa=13.74
28/09/2019,12:25:25,TEMP=25.9,BA=5.48,STAT.F,ExtBa=13.75
28/09/2019,12:40:24,TEMP=25.9,BA=5.48,STAT.D=3.5,ExtBa=13.80
28/09/2019,12:55:23,TEMP=25.7,BA=5.48,STAT.D=3.5,ExtBa=13.85
28/09/2019,13:10:23,TEMP=25.9,BA=5.48,STAT.D=3.5,ExtBa=13.91
28/09/2019,13:25:25,TEMP=26.0,BA=5.48,STAT.F,ExtBa=14.05
28/09/2019,13:35:35,TEMP=26.0,BA=5.40,STAT.A=3.5,ExtBa=12.97
28/09/2019,13:50:05,TEMP=25.5,BA=5.40,STAT.A=3.5,ExtBa=13.23
28/09/2019,14:03:17,TEMP=25.7,BA=5.48,STAT.A=3.5,ExtBa=13.34
28/09/2019,14:14:12,TEMP=25.6,BA=5.48,STAT.A=3.5,ExtBa=13.23
28/09/2019,14:23:22,TEMP=25.5,BA=5.48,STAT.C=3.5,ExtBa=13.17
28/09/2019,14:31:14,TEMP=25.4,BA=5.44,STAT.A=3.5,ExtBa=13.12
28/09/2019,14:38:03,TEMP=25.4,BA=5.44,STAT.A=3.5,ExtBa=13.10
28/09/2019,14:44:02,TEMP=25.3,BA=5.44,STAT.A=3.5,ExtBa=13.09
28/09/2019,14:49:19,TEMP=25.2,BA=5.44,STAT.A=3.5,ExtBa=13.08
28/09/2019,14:54:02,TEMP=25.1,BA=5.36,STAT.B=3.5,ExtBa=13.05
28/09/2019,15:03:51,TEMP=24.8,BA=5.40,STAT.A=3.5,ExtBa=13.10
28/09/2019,15:11:35,TEMP=24.6,BA=5.36,STAT.A=3.5,ExtBa=13.09
28/09/2019,15:17:51,TEMP=24.5,BA=5.36,STAT.A=3.5,ExtBa=13.08
28/09/2019,15:23:02,TEMP=24.5,BA=5.40,STAT.A=3.5,ExtBa=13.07
28/09/2019,15:27:24,TEMP=24.4,BA=5.40,STAT.A=3.5,ExtBa=13.06
28/09/2019,15:34:16,TEMP=24.1,BA=5.36,STAT.A=3.5,ExtBa=13.07